Regional Weather Roundup
Issued by NWS Memphis, TN

Home | Current Version | Previous Version | Text Only | Print | Product List | Glossary On
Versions: 1 2 3 4 5 6 7 8 9 10 11 12 13 14 15 16 17 18 19 20 21 22 23 24 25 26 27 28 29 30 31 32 33 34 35 36 37 38 39 40 41 42 43 44 45 46 47 48 49 50
000
ASUS44 KMEG 311110
RWRMEG
MEMPHIS CWA HOURLY WEATHER ROUNDUP
NATIONAL WEATHER SERVICE MEMPHIS TN
600 AM CDT THU JUL 31 2014

...WEST TENNESSEE...

CITY           SKY/WX    TMP DP  RH WIND       PRES   REMARKS
MEMPHIS INTL   CLOUDY    72  64  76 N3        30.09R
NWS MEMPHIS      N/A     69 N/A N/A MISG        N/A
JACKSON        CLOUDY    68  65  90 CALM      30.09R
LEXINGTON      CLOUDY    64  63  94 CALM      30.08R
SAVANNAH       CLOUDY    65  65 100 CALM      30.09R
DYERSBURG      CLOUDY    68  59  73 SW3       30.10R
UNION CITY     CLOUDY    66  66 100 CALM      30.08R
PARIS          CLOUDY    63  60  90 CALM      30.09S


...EASTERN ARKANSAS...

CITY           SKY/WX    TMP DP  RH WIND       PRES   REMARKS
JONESBORO      CLOUDY    67  66  97 E3        30.08S
WEST MEMPHIS   CLOUDY    69  69 100 W3        30.09R
BATESVILLE     CLOUDY    68  66  94 CALM      30.09R
NEWPORT        RAIN      68  66  94 S8        30.10R FOG
WALNUT RIDGE   CLOUDY    68  64  88 CALM      30.08R
BLYTHEVILLE    LGT RAIN  70  67  90 CALM      30.09R
SEARCY         CLOUDY    67  67 100 W3        30.10R FOG
STUTTGART      CLOUDY    66  64  94 CALM      30.10R
PINE BLUFF     LGT RAIN  66  65  96 NE5       30.08S
MONTICELLO     LGT RAIN  68  66  93 E6        30.08R


...NORTH MISSISSIPPI...

CITY           SKY/WX    TMP DP  RH WIND       PRES   REMARKS
TUPELO         CLOUDY    69  64  84 N6        30.06R
CORINTH        CLOUDY    66  64  94 CALM      30.08R
GRENADA        CLOUDY    68  64  88 NW3       30.07R
GREENWOOD      CLOUDY    70  66  87 CALM      30.07R
COLUMBUS       CLOUDY    68  64  85 N2        30.05R
STARKVILLE     CLOUDY    68  63  83 CALM      30.05S
GOLDEN TRIANGL CLOUDY    68  61  77 CALM      30.06R


...SOUTHEAST MISSOURI...

CITY           SKY/WX    TMP DP  RH WIND       PRES   REMARKS
WEST PLAINS    CLOUDY    66  63  90 CALM      30.11S
POPLAR BLUFF   CLOUDY    67  63  87 CALM      30.07R FOG
CAPE GIRARDEAU FOG       60  58  92 CALM      30.08S VSB 1/4


...NORTHWEST ALABAMA...

CITY           SKY/WX    TMP DP  RH WIND       PRES   REMARKS
MUSCLE SHOALS  CLOUDY    69  62  78 CALM      30.09R


...MIDDLE TENNESSEE...

CITY           SKY/WX    TMP DP  RH WIND       PRES   REMARKS
NASHVILLE      MOCLDY    61  59  93 CALM      30.10R
CLARKSVILLE    FOG       58  56  93 CALM      30.09R VSB 3/4
DICKSON        MOCLDY    61  57  88 CALM      30.09S
COLUMBIA       CLEAR     64  63  94 CALM      30.08R
LEWISBURG      PTCLDY    62  60  93 CALM      30.09R


...WESTERN KENTUCKY...

CITY           SKY/WX    TMP DP  RH WIND       PRES   REMARKS
PADUCAH        PTCLDY    59  56  89 CALM      30.08R FOG
FORT CAMPBELL  MOCLDY    59  59 100 MISG      30.09R


...CENTRAL ARKANSAS...

CITY           SKY/WX    TMP DP  RH WIND       PRES   REMARKS
LITTLE ROCK    LGT RAIN  67  64  90 CALM      30.09R


SKY/WX REPORTED AS FAIR MEANS FEW OR NO CLOUDS BELOW
12 THOUSAND FEET.



USA.gov is the U.S. government's official web portal to all federal, state and local government web resources and services.